Location: Home
(42.5358°N, 72.7383°W)
Time: 21:41:26
(UTC-05:00)

Altair - Pass Details

Date: 12 December 2021
Orbit: 1501 x 1683 km, 47.2° (Epoch: 26 January)

Event Time Altitude Azimuth Distance (km) Brightness Sun altitude
Rises 17:02:11 0° 286° (WNW) 4,762 10.9 -8.0°
Reaches altitude 10° 17:05:20 10° 289° (WNW) 3,753 10.3 -8.6°
Maximum altitude 17:14:48 73° 14° (NNE) 1,581 7.5 -10.2°
Drops below altitude 10° 17:24:00 10° 99° (E) 3,653 9.0 -11.8°
Enters shadow 17:24:36 - 100° (E) 3,847 9.1 -11.9°
